Погода в Аньшуне

Китай     26°14′41″N   105°55′32″E
темп.,
°C
ветер,
м/с
пор.,
м/с
влажн.,
%
обл.,
%
осадки,
мм/ч
давл.,
гПа
погр.,
м
29 июля, чт
чт2923:00+21всв118499 0.5 100311
02:00+20ссз118673 1.2 100311
05:00+19сз11865 0.1 100311
08:00+21ссз13825 0.1 1004161
11:00+25ссз34689 0.0 10031117
14:00+27ссв336197 0.1 10011609
17:00+26св34715 0.9 1001631
20:00+22в118319 2.3 100311
30 июля, пт
пт3023:00+20с11905 1.2 100511
02:00+20сз01915 1.2 100411
05:00+19сз11925 0.0 100311
08:00+21ссз00865 0.0 1004111
11:00+26с226613 0.0 10041058
14:00+28св335630 0.1 10011982
17:00+28ссв336172 0.0 10001648
20:00+23ссв34775 0.1 100251
31 июля, сб
сб3123:00+21св128354 0.0 100411
02:00+20ссз118292 0.0 100311
05:00+20сз1181100 0.0 100211
08:00+22с1181100 0.0 100369
11:00+23ююз2276100 1.9 1004205
14:00+20зюз4693100 2.7 1004251
17:00+19сз2494100 2.8 1004275
20:00+18зюз2295100 3.5 100567
1 августа, вс
вс123:00+18з2390100 0.0 100651
02:00+18зсз228999 0.0 100422
05:00+17сз118776 0.0 100311
08:00+20зсз118093 0.0 100491
11:00+25ссв346598 0.0 1003858
14:00+27св45545 0.0 10011919
17:00+28ссв4659100 0.0 9992025
20:00+22ссв337455 0.0 100126
2 августа, пн
пн223:00+21ссз117268 0.0 100311
02:00+19ссв11800 0.0 100311
05:00+18ссз11810 0.0 100311
08:00+21ссз23760 0.0 1004103
11:00+27св35590 0.0 10031247
14:00+29в364811 0.0 10022621
17:00+28юв345790 0.0 10011991
20:00+23юв117227 0.0 100311